Location: Kalberh�ni
(46.4610°N, 7.2453°E)
Time: 22:15:44
(UTC+00:00)

USA 229 - Pass Details

Date: 27 October 2021
Orbit: 946 x 1266 km, 63.4° (Epoch: 25 November)

Event Time Altitude Azimuth Distance (km) Brightness Sun altitude
Rises 20:45:06 0° 285° (WNW) 3,747 7.3 -44.2°
Reaches altitude 10° 20:48:24 10° 302° (WNW) 2,848 6.5 -44.6°
Enters shadow 20:52:29 20° 340° (NNW) 2,242 5.7 -45.2°
